Theta_e
311 310 310 310 311 312 314 315 315 316 316 316 317 317 318 319 320 317 317 320 327 332 333 334 343 343 343 342 343 345 352 355 356 357 355 353 356 352 351 352 351 350 346 343 345
309 309 309 310 310 311 313 314 315 316 316 316 316 317 317 316 318 318 321 319 325 328 327 331 332 337 336 342 345 350 353 354 351 350 352 354 355 354 354 354 352 347 344 344 347
307 307 308 308 309 310 311 313 315 316 316 316 316 316 316 316 316 317 325 328 319 321 326 329 332 334 336 339 348 351 351 350 349 349 350 355 355 353 354 355 351 349 346 347 348
309 308 308 308 309 310 311 312 313 315 316 317 317 315 316 320 324 323 323 328 330 324 325 334 332 334 345 348 346 349 349 345 349 348 347 354 354 355 353 354 348 345 345 348 349
314 311 310 309 309 309 310 311 312 314 315 317 317 315 317 315 316 318 321 323 328 330 331 333 333 333 345 346 346 349 348 347 348 347 347 348 355 355 354 350 346 344 347 349 348
318 316 313 311 311 310 310 310 311 313 315 317 316 314 319 317 318 320 322 319 324 329 329 331 331 330 340 347 347 347 348 347 349 346 346 351 353 353 352 348 350 347 349 348 348
320 318 318 317 315 313 311 310 311 313 314 316 314 315 317 314 319 319 319 319 320 323 322 327 329 330 343 345 346 347 347 348 348 347 347 343 352 355 350 348 351 350 349 348 347
320 320 320 319 317 315 312 312 312 314 316 314 313 317 313 318 318 319 318 320 321 321 322 324 328 335 343 344 346 347 343 344 346 348 343 346 353 353 350 348 349 348 349 349 347
320 320 320 320 319 316 313 312 313 317 315 313 318 317 316 319 319 322 323 321 322 321 323 327 328 339 341 341 340 342 345 348 347 349 346 345 351 350 348 347 348 349 347 346 344
320 320 320 320 320 317 314 313 318 318 317 319 321 315 313 317 320 320 321 322 321 321 325 328 325 334 335 338 342 342 348 346 347 346 346 345 347 349 348 348 347 344 343 344 343
320 320 320 320 320 317 313 314 314 315 320 313 313 313 314 318 320 319 320 320 319 319 323 325 328 332 335 337 339 340 345 347 347 347 348 349 348 352 348 348 348 345 343 341 341
320 320 320 320 320 314 314 313 316 318 319 316 316 315 317 318 320 320 318 319 320 318 324 326 330 329 329 330 337 344 346 347 347 348 347 350 349 347 348 347 348 347 345 344 342
320 319 320 320 318 315 313 318 318 318 318 318 317 318 319 318 320 320 318 318 317 317 326 328 332 330 337 344 343 342 341 344 347 350 350 351 350 350 348 347 344 345 344 344 344
320 319 320 320 315 316 314 318 318 318 314 316 318 318 318 318 321 319 316 318 320 319 324 326 326 331 335 342 339 342 341 345 351 345 346 348 350 344 345 347 345 345 345 344 343
319 319 320 320 317 315 315 316 319 314 314 317 319 320 319 319 317 318 316 318 320 322 323 327 331 332 339 341 338 340 340 345 346 346 347 350 347 342 344 345 345 341 342 345 344
319 319 320 317 314 317 316 319 316 315 318 320 320 321 321 319 318 316 317 317 317 320 322 325 324 326 328 334 338 337 335 335 336 337 344 340 347 344 342 344 342 339 341 343 345
319 320 318 316 316 316 319 313 317 320 317 320 321 319 319 319 319 318 316 317 315 317 318 319 321 323 329 329 335 334 334 339 343 343 345 341 350 345 341 341 339 340 340 342 342
320 320 318 316 318 317 317 318 322 318 320 320 323 319 318 315 317 316 316 315 314 314 314 320 326 323 326 326 329 336 333 336 343 343 342 340 344 340 337 343 343 345 344 346 346
320 318 316 319 320 317 316 321 319 318 323 323 321 317 318 317 316 316 314 313 313 314 316 317 321 321 326 331 332 335 336 330 336 335 338 337 336 338 339 342 339 342 346 348 349
318 314 319 321 320 317 318 320 321 320 323 322 324 322 325 319 316 314 313 314 315 313 314 316 319 318 321 323 332 330 330 337 332 343 345 338 341 343 341 343 342 348 346 347 348
313 320 320 318 318 316 321 320 322 321 322 323 324 322 322 324 314 313 315 316 314 313 313 312 315 320 318 319 322 335 335 331 330 332 339 339 337 334 339 341 341 344 346 345 345
310 326 320 317 314 312 319 319 319 322 321 322 321 320 323 322 321 315 315 315 314 311 314 313 311 315 317 317 318 330 332 331 334 337 331 333 335 330 336 337 338 340 344 342 344
312 312 319 318 318 317 317 320 322 325 323 323 322 320 320 322 321 318 316 317 315 314 314 313 312 314 316 316 318 319 326 327 327 330 336 340 336 340 339 341 340 339 340 345 344
311 331 324 316 315 321 329 327 330 328 323 324 322 321 321 321 317 322 324 326 321 315 331 319 309 313 317 317 318 325 328 327 327 332 332 336 333 332 343 343 342 341 342 348 353
311 328 327 327 325 327 328 329 333 334 330 326 325 322 323 320 321 323 323 327 328 332 315 313 315 312 314 316 320 322 327 325 327 327 333 332 333 333 332 342 341 339 345 353 354
316 320 319 323 325 329 327 330 334 333 333 332 327 332 331 317 323 329 323 328 333 329 318 312 317 314 319 316 318 326 325 326 326 327 327 328 329 328 340 337 339 340 349 355 353
315 315 318 320 325 329 327 329 332 331 332 332 332 331 330 330 331 328 321 320 327 332 327 319 314 316 320 321 323 324 324 323 328 326 328 335 331 340 341 341 340 342 351 354 353
Wind_Speed
14 14 13 12 12 11 11 12 12 13 14 15 16 17 21 26 30 20 4 7 3 7 5 4 6 5 6 3 4 2 3 1 2 2 6 4 2 4 5 8 1 3 5 15 28
15 15 14 14 13 12 12 12 12 13 15 15 15 16 18 24 25 13 8 9 10 7 4 5 3 8 3 2 1 2 3 7 6 3 3 4 5 8 5 7 3 11 18 31 27
17 16 15 16 15 13 12 12 12 13 14 15 14 14 17 19 5 4 14 2 15 11 8 4 8 4 2 3 2 4 5 5 0 1 5 6 5 2 10 2 5 13 17 20 23
19 19 18 17 16 15 14 14 14 14 14 15 14 13 14 7 1 1 12 11 6 6 6 3 3 2 2 4 2 1 2 3 2 4 3 5 6 2 6 3 11 17 23 17 17
21 20 19 20 19 17 15 15 15 15 15 15 12 10 5 4 8 2 8 8 5 6 4 3 1 2 3 3 3 1 3 3 3 5 4 1 5 6 2 6 14 18 17 17 16
22 22 21 21 23 21 19 17 16 15 15 14 10 5 0 3 3 2 5 12 3 3 3 3 3 4 4 3 1 0 2 3 4 5 4 4 3 5 2 11 14 17 15 14 14
22 22 24 24 23 25 21 19 17 15 14 10 6 2 1 14 4 11 15 14 8 3 2 5 4 2 4 4 2 1 2 3 1 1 2 1 3 3 7 10 13 13 12 12 13
23 24 25 27 25 26 23 19 17 15 9 5 2 1 7 6 14 16 12 10 8 6 7 6 4 6 3 3 3 4 4 4 3 2 2 4 3 2 7 12 12 13 12 14 13
24 26 27 28 25 28 22 19 16 6 2 1 1 2 9 11 7 8 6 7 3 4 5 1 3 4 3 4 4 6 2 2 1 4 1 3 2 3 6 7 8 12 13 13 11
25 28 30 30 31 29 23 15 3 0 2 2 1 3 6 1 5 13 5 5 1 3 4 4 5 4 4 4 4 3 2 3 3 3 3 2 2 6 7 8 9 8 9 12 14
26 29 31 31 36 29 18 1 4 2 1 7 5 4 6 8 7 2 2 5 1 6 4 4 4 6 6 8 2 4 3 3 2 2 3 4 6 10 8 10 9 9 8 9 13
27 29 32 30 33 16 6 3 6 3 7 10 11 6 7 3 4 5 4 5 3 3 4 5 3 4 4 4 5 4 3 2 2 2 1 2 7 8 9 9 16 16 13 14 12
27 30 33 32 21 5 11 1 3 12 2 7 5 5 5 10 7 7 5 5 4 5 4 6 5 3 2 1 3 3 5 5 4 2 1 4 4 4 5 3 6 12 14 15 17
26 29 33 34 5 15 7 1 17 6 4 6 3 6 5 7 4 7 6 5 2 9 8 5 3 4 2 4 5 2 7 5 7 3 2 3 4 4 3 6 8 8 9 13 15
27 28 34 28 15 4 1 16 2 3 3 1 2 1 0 8 2 1 3 4 6 6 6 7 6 4 2 5 6 4 6 3 3 4 2 2 3 6 1 4 9 9 12 13 13
28 30 35 10 11 11 11 11 3 5 5 5 3 3 3 3 1 2 3 3 3 5 3 4 2 2 6 3 8 4 5 7 5 2 3 5 3 6 3 5 4 6 14 14 13
31 34 25 15 4 5 9 2 5 3 5 6 3 2 4 5 2 2 4 3 5 4 2 2 2 2 3 1 2 6 6 4 3 4 5 4 1 10 6 8 5 8 6 6 5
37 28 14 15 1 4 1 5 1 3 6 5 4 1 6 5 3 2 4 3 0 5 3 5 6 7 3 8 6 4 7 5 6 3 4 2 5 6 5 6 4 5 6 4 6
31 15 10 3 6 5 5 3 6 5 4 7 9 5 3 0 4 2 6 8 9 8 7 6 5 3 5 5 7 3 4 5 7 3 2 3 7 10 5 7 8 5 5 5 5
21 9 5 7 10 5 4 4 4 4 5 3 3 3 3 2 4 6 7 6 6 11 5 7 3 4 2 4 4 4 3 3 3 4 5 4 6 6 5 8 6 5 7 5 2
6 3 10 9 6 5 4 6 5 7 3 4 1 4 6 3 6 5 7 5 7 5 5 6 4 3 3 5 9 2 1 6 5 4 5 2 6 8 10 10 10 8 7 6 7
5 2 8 3 4 1 4 6 3 4 3 7 3 9 5 2 4 4 6 7 7 10 10 7 6 5 10 0 1 4 7 6 5 6 2 3 7 3 8 9 10 8 5 4 4
2 2 3 5 3 1 3 3 3 3 4 2 4 7 4 3 2 5 6 6 10 8 10 8 1 2 9 5 2 3 4 5 5 4 7 6 7 1 2 7 7 9 8 6 7
1 2 3 3 0 5 2 3 4 4 6 5 5 1 2 3 6 3 3 2 5 6 6 11 4 8 7 8 5 4 4 4 5 4 4 7 9 6 7 9 8 8 6 8 9
1 1 1 2 2 2 2 1 3 4 4 2 4 4 2 4 3 4 3 5 3 5 4 7 8 7 7 4 4 4 4 8 8 6 6 8 8 15 9 14 15 7 7 7 9
0 1 3 2 2 2 4 5 3 4 3 3 2 11 6 6 1 3 3 2 1 2 3 3 2 4 3 6 6 4 5 8 7 2 8 4 8 6 1 7 9 12 10 8 7
2 1 2 2 1 2 4 4 4 3 6 8 5 4 4 2 4 8 7 6 4 1 2 3 5 3 4 2 4 4 7 8 5 5 6 6 9 4 5 9 15 14 14 12 10
Wind_Direction
2 2 358 357 352 345 339 333 330 328 324 327 328 330 327 323 321 321 235 245 228 167 164 159 208 185 183 234 232 130 79 96 286 327 300 173 115 132 107 129 263 41 121 135 147
6 2 358 355 351 346 339 334 332 328 325 323 324 325 325 325 323 303 319 248 198 197 183 197 244 161 154 207 139 117 115 197 190 180 244 203 164 161 112 146 55 77 103 128 142
4 358 354 348 347 344 340 335 331 328 325 323 323 324 324 328 323 255 15 245 223 221 224 252 273 174 155 111 236 167 178 187 304 196 237 178 191 149 119 202 182 151 143 144 150
10 7 2 356 350 344 340 335 332 329 327 323 324 327 326 339 106 348 14 54 102 182 217 247 290 115 69 174 226 318 58 140 130 19 327 125 115 103 149 252 150 157 153 150 160
8 3 2 359 351 343 337 335 331 328 328 324 322 331 328 6 251 312 70 36 94 144 183 212 251 83 159 228 71 256 81 145 72 14 344 196 138 164 213 86 128 141 152 163 172
5 3 357 353 351 345 336 331 327 323 322 318 318 332 208 275 246 226 305 352 254 172 145 213 184 210 116 64 1 177 62 66 38 335 330 98 126 96 60 117 128 150 162 170 176
4 0 356 350 345 345 333 325 319 315 317 313 317 345 147 239 240 284 287 298 264 223 200 227 199 161 128 108 109 126 58 33 1 26 312 147 35 69 145 137 144 159 174 178 183
358 355 352 349 342 337 331 324 316 311 308 305 329 73 248 280 299 287 289 278 252 233 227 255 185 117 78 117 50 51 57 49 279 213 33 86 248 100 149 146 167 170 186 194 190
354 352 349 346 342 333 332 328 317 314 295 291 72 88 268 310 286 328 265 248 214 147 219 104 110 102 56 70 18 16 295 237 304 212 30 89 199 176 163 153 176 186 188 199 205
352 351 347 344 342 333 332 330 341 148 138 99 72 13 276 304 308 309 263 219 306 115 71 43 48 83 41 72 252 198 282 271 246 196 128 29 194 172 175 176 194 201 202 204 203
350 347 342 342 340 331 334 344 16 5 167 203 199 237 283 313 308 266 125 121 43 54 120 354 84 233 198 211 214 130 172 262 283 226 123 198 192 193 187 198 198 210 213 221 224
346 343 340 341 337 344 15 64 93 93 300 241 244 263 276 336 310 285 167 131 106 180 110 36 213 229 192 192 194 125 132 272 0 99 131 199 242 220 194 200 196 203 216 225 236
342 341 338 340 337 23 329 196 157 331 211 289 204 204 210 154 214 251 141 126 138 145 166 155 224 170 161 100 183 140 177 177 189 189 113 297 274 205 247 264 208 216 210 217 225
339 338 337 338 345 331 298 151 320 176 45 280 274 276 152 157 253 214 203 144 157 176 160 209 243 251 101 239 134 175 199 160 146 104 272 33 290 233 187 231 233 219 213 209 211
336 334 333 335 299 283 273 326 68 125 357 249 218 133 174 162 168 260 204 69 170 156 118 228 162 143 147 234 165 212 156 154 93 80 32 26 55 271 179 205 237 228 227 225 220
331 331 327 326 301 282 286 337 122 42 261 336 115 147 127 334 320 59 150 78 148 124 44 199 302 175 197 241 174 114 65 45 53 51 11 324 129 281 238 192 225 236 233 230 224
327 327 314 290 245 312 323 52 41 142 316 326 8 147 174 193 247 82 129 124 141 124 222 354 209 261 172 262 83 73 65 357 357 13 224 309 32 245 249 242 214 249 269 280 278
328 324 306 271 233 358 194 55 171 263 269 298 310 273 186 155 238 93 92 162 109 94 125 160 256 162 197 190 202 140 150 167 205 205 259 284 243 256 220 267 244 273 305 280 254
331 321 302 322 228 203 80 89 212 215 299 324 330 46 350 148 157 117 186 195 199 170 162 139 251 259 209 158 136 175 174 178 106 18 29 241 291 296 214 269 284 295 275 260 273
328 328 308 312 155 138 79 220 241 228 302 0 11 31 321 281 149 154 186 204 207 186 161 202 171 207 236 89 33 146 156 81 5 136 233 284 283 242 271 236 243 282 253 257 305
339 12 353 134 137 55 151 227 266 248 271 339 264 287 239 278 186 210 202 245 198 162 134 141 115 264 127 192 176 107 199 49 118 126 167 226 261 222 238 199 186 231 224 237 258
353 44 353 121 60 8 161 198 246 274 257 249 223 210 232 272 271 227 216 231 160 142 164 199 144 219 218 82 179 147 187 150 136 222 214 176 272 292 235 177 171 196 188 211 209
6 271 47 340 126 300 292 298 252 268 255 242 261 211 189 256 296 209 212 259 154 153 162 181 188 40 342 358 53 187 180 136 119 99 197 149 262 344 312 160 183 172 168 171 162
18 26 337 55 287 127 68 287 301 258 258 229 255 226 266 267 203 274 275 271 198 207 131 120 132 158 188 207 160 177 180 158 128 136 168 226 260 247 223 219 186 203 159 146 151
30 320 220 242 277 168 169 276 275 297 241 262 290 236 10 287 271 219 264 309 25 121 73 135 192 171 228 182 180 204 188 170 190 190 166 255 203 257 223 208 201 162 151 160 157
58 38 353 283 307 164 170 222 212 286 241 278 207 296 263 209 233 271 347 272 1 44 109 354 210 172 264 153 208 192 262 205 206 210 266 271 272 242 308 116 157 173 175 181 175
341 311 117 271 178 124 219 210 231 353 258 246 299 314 305 233 279 246 224 274 265 352 117 105 130 100 232 24 132 13 235 220 186 186 168 184 234 186 210 208 187 169 173 175 182